Weather History for KMGJ - December, 2013

Change the Weather History Date:

Saturday, December 21, 2013

  Actual Average (KPOU) Record (KPOU)
Temperature  
Mean Temperature 45 °F 29 °F  
Max Temperature 53 °F 38 °F 61 °F (1957)
Min Temperature 37 °F 20 °F -8 °F (1955)
Degree Days  
Heating Degree Days 20 36  
Month to date heating degree days 677  
Since 1 July heating degree days 1955  
Cooling Degree Days 0 0  
Month to date cooling degree days 0  
Year to date cooling degree days 672  
Moisture  
Dew Point 36 °F    
Average Humidity 79    
Maximum Humidity 100    
Minimum Humidity 58    
Precipitation  
Precipitation 0.01 in 0.11 in 2.02 in (1973)
Month to date precipitation 2.45  
Year to date precipitation 45.45  
Sea Level Pressure  
Sea Level Pressure 29.91 in    
Wind  
Wind Speed 6 mph (SW)    
Max Wind Speed 14 mph    
Max Gust Speed -    
Visibility 6 miles    
Events Rain    
T = Trace of Precipitation, MM = Missing Value Source: NWS Daily Summary

Daily Weather History Graph

Daily Weather History Graph

Search for Another Location

Airport or City:

Trip Planner

Search our weather history database for the weather conditions in past years. The results will help you decide how hot, cold, wet, or windy it might be!

Date:

Astronomy

Dec. 21, 2013 Rise Set
Actual Time 7:20 AM EST 4:30 PM EST
Civil Twilight 6:48 AM EST 5:01 PM EST
Nautical Twilight 6:13 AM EST 5:36 PM EST
Astronomical Twilight 5:40 AM EST 6:10 PM EST
Moon 8:47 PM EST (12/21) 9:42 AM EST (12/21)
Length of Visible Light 10h 13m
Length of Day
9h 10m
Waning Gibbous, 84% of the Moon is Illuminated
Dec 21
Waning Gibbous
Dec 25
Last Quarter
Jan 1
New
Jan 7
First Quarter
Jan 15
Full

Hourly Weather History & Observations

Time (EST) Temp. Windchill Dew Point Humidity Pressure Visibility Wind Dir Wind Speed Gust Speed Precip Events Conditions
12:54 AM 41.0 °F 36.4 °F 30.0 °F 65% 29.94 in 10.0 mi WSW 6.9 mph - N/A   Partly Cloudy
1:54 AM 44.1 °F 38.6 °F 30.0 °F 58% 29.94 in 10.0 mi SW 10.4 mph - N/A   Partly Cloudy
2:54 AM 43.0 °F 39.5 °F 30.0 °F 60% 29.95 in 10.0 mi West 5.8 mph - N/A   Scattered Clouds
3:54 AM 42.1 °F - 30.9 °F 65% 29.93 in 10.0 mi Calm Calm - N/A   Clear
4:54 AM 42.1 °F 37.7 °F 30.9 °F 65% 29.93 in 10.0 mi SSW 6.9 mph - N/A   Clear
5:54 AM 42.1 °F 39.2 °F 30.9 °F 65% 29.94 in 10.0 mi SW 4.6 mph - N/A   Clear
6:54 AM 39.0 °F 34.8 °F 30.9 °F 73% 29.95 in 10.0 mi SW 5.8 mph - N/A   Mostly Cloudy
7:54 AM 43.0 °F 40.3 °F 33.1 °F 68% 29.95 in 10.0 mi SW 4.6 mph - N/A   Clear
8:54 AM 45.0 °F 40.6 °F 34.0 °F 65% 29.95 in 10.0 mi SW 8.1 mph - N/A   Partly Cloudy
9:54 AM 48.0 °F - 35.1 °F 61% 29.96 in 10.0 mi SW 9.2 mph - N/A   Scattered Clouds
10:54 AM 50.0 °F - 37.9 °F 63% 29.94 in 10.0 mi SW 13.8 mph - N/A   Partly Cloudy
11:54 AM 51.1 °F - 37.9 °F 61% 29.89 in 10.0 mi SW 9.2 mph - N/A   Clear
12:54 PM 53.1 °F - 39.0 °F 59% 29.88 in 10.0 mi SW 10.4 mph - N/A   Mostly Cloudy
1:54 PM 52.0 °F - 39.0 °F 61% 29.86 in 10.0 mi SSW 6.9 mph - N/A   Overcast
2:54 PM 52.0 °F - 39.0 °F 61% 29.87 in 10.0 mi SW 13.8 mph - N/A   Overcast
3:54 PM 51.1 °F - 39.9 °F 66% 29.89 in 10.0 mi SSW 10.4 mph - N/A   Overcast
4:54 PM 50.0 °F - 39.9 °F 68% 29.91 in 10.0 mi SW 6.9 mph - N/A   Overcast
5:54 PM 48.0 °F - 41.0 °F 77% 29.91 in 10.0 mi SW 5.8 mph - 0.00 in   Overcast
6:54 PM 46.9 °F - 41.0 °F 80% 29.91 in 10.0 mi Calm Calm - 0.00 in Rain Light Rain
7:54 PM 39.9 °F - 39.0 °F 97% 29.91 in 4.0 mi Calm Calm - 0.01 in   Overcast
8:04 PM 39.9 °F - 39.0 °F 97% 29.90 in 2.0 mi Calm Calm - N/A   Overcast
8:31 PM 39.9 °F 37.8 °F 39.0 °F 97% 29.89 in 1.5 mi ENE 3.5 mph - N/A   Overcast
8:54 PM 37.9 °F - 37.0 °F 97% 29.91 in 1.5 mi Calm Calm - N/A   Overcast
9:04 PM 37.9 °F 35.5 °F 36.0 °F 93% 29.90 in 2.5 mi North 3.5 mph - N/A   Overcast
9:22 PM 39.0 °F - 39.0 °F 100% 29.91 in 1.8 mi Calm Calm - N/A   Overcast
9:33 PM 37.9 °F - 37.0 °F 97% 29.91 in 0.8 mi Calm Calm - N/A   Mostly Cloudy
9:41 PM 37.9 °F - 37.0 °F 97% 29.89 in 1.0 mi Calm Calm - N/A   Scattered Clouds
9:54 PM 37.0 °F 33.3 °F 36.0 °F 96% 29.90 in 1.2 mi SW 4.6 mph - N/A   Scattered Clouds
10:10 PM 37.9 °F - 36.0 °F 93% 29.88 in 3.0 mi Calm Calm - N/A   Partly Cloudy
10:38 PM 37.9 °F - 37.0 °F 97% 29.87 in 1.8 mi Calm Calm - N/A   Clear
10:54 PM 37.0 °F 34.5 °F 36.0 °F 96% 29.88 in 2.5 mi West 3.5 mph - N/A   Clear
11:03 PM 37.0 °F - 36.0 °F 96% 29.87 in 4.0 mi Calm Calm - N/A   Clear
11:11 PM 37.9 °F - 36.0 °F 93% 29.88 in 4.0 mi Calm Calm - N/A   Scattered Clouds
11:31 PM 37.9 °F 35.5 °F 36.0 °F 93% 29.87 in 2.5 mi ENE 3.5 mph - N/A   Mostly Cloudy
11:54 PM 37.9 °F - 36.0 °F 93% 29.87 in 3.0 mi Calm Calm - N/A   Clear